Time,TemperatureF,DewpointF,PressureIn,WindDirection,WindDirectionDegrees,WindSpeedMPH,WindSpeedGustMPH,Humidity,HourlyPrecipIn,Conditions,Clouds,dailyrainin,SoftwareType,DateUTC
2013-06-12 00:05:00,74.0,72.8,29.93,South,180,3.0,6.0,96,0.00,,,0.00,Weather View 32 v70,2013-06-12 04:05:00,
2013-06-12 00:10:00,74.0,72.8,29.92,SSW,202,3.0,6.0,96,0.00,,,0.00,Weather View 32 v70,2013-06-12 04:10:00,
2013-06-12 00:15:00,74.0,73.1,29.92,South,180,4.0,6.0,97,0.00,,,0.00,Weather View 32 v70,2013-06-12 04:15:00,
2013-06-12 00:20:00,74.0,73.1,29.92,South,180,2.0,6.0,97,0.00,,,0.00,Weather View 32 v70,2013-06-12 04:20:00,
2013-06-12 00:30:00,74.0,73.4,29.91,SSE,157,2.0,6.0,98,0.00,,,0.00,Weather View 32 v70,2013-06-12 04:30:00,
2013-06-12 00:35:00,74.0,73.7,29.92,South,180,2.0,6.0,99,0.00,,,0.00,Weather View 32 v70,2013-06-12 04:35:00,
2013-06-12 00:45:00,74.0,73.7,29.92,South,180,0.0,6.0,99,0.00,,,0.00,Weather View 32 v70,2013-06-12 04:45:00,
2013-06-12 00:50:00,74.0,73.7,29.92,South,180,0.0,6.0,99,0.00,,,0.00,Weather View 32 v70,2013-06-12 04:50:00,
2013-06-12 00:55:00,74.0,73.7,29.92,South,180,0.0,6.0,99,0.00,,,0.00,Weather View 32 v70,2013-06-12 04:55:00,
2013-06-12 01:00:00,74.0,73.7,29.92,South,180,0.0,6.0,99,0.00,,,0.00,Weather View 32 v70,2013-06-12 05:00:00,
2013-06-12 01:05:00,74.0,73.7,29.92,SSE,157,0.0,6.0,99,0.00,,,0.00,Weather View 32 v70,2013-06-12 05:05:00,
2013-06-12 01:10:00,74.0,73.7,29.92,SSE,157,0.0,6.0,99,0.00,,,0.00,Weather View 32 v70,2013-06-12 05:10:00,
2013-06-12 01:15:00,74.0,73.7,29.92,SSE,157,0.0,6.0,99,0.00,,,0.00,Weather View 32 v70,2013-06-12 05:15:00,
2013-06-12 01:20:00,74.0,74.0,29.92,SSE,157,0.0,6.0,100,0.00,,,0.00,Weather View 32 v70,2013-06-12 05:20:00,
2013-06-12 01:25:00,74.0,74.0,29.91,SSE,157,0.0,6.0,100,0.00,,,0.00,Weather View 32 v70,2013-06-12 05:25:00,
2013-06-12 01:35:00,74.0,74.0,29.92,SSE,157,0.0,4.0,100,0.00,,,0.00,Weather View 32 v70,2013-06-12 05:35:00,
2013-06-12 01:40:00,74.0,74.0,29.92,SSE,157,0.0,4.0,100,0.00,,,0.00,Weather View 32 v70,2013-06-12 05:40:00,
2013-06-12 01:50:00,74.0,74.0,29.92,SSE,157,0.0,2.0,100,0.00,,,0.00,Weather View 32 v70,2013-06-12 05:50:00,
2013-06-12 01:55:00,74.0,74.0,29.92,SSE,157,0.0,2.0,100,0.00,,,0.00,Weather View 32 v70,2013-06-12 05:55:00,
2013-06-12 02:00:00,73.0,73.0,29.92,SSE,157,0.0,2.0,100,0.00,,,0.00,Weather View 32 v70,2013-06-12 06:00:00,
2013-06-12 02:10:00,73.0,73.0,29.92,SSE,157,0.0,2.0,100,0.00,,,0.00,Weather View 32 v70,2013-06-12 06:10:00,
2013-06-12 02:15:00,73.0,73.0,29.92,SSE,157,0.0,2.0,100,0.00,,,0.00,Weather View 32 v70,2013-06-12 06:15:00,
2013-06-12 02:20:00,73.0,73.0,29.92,SSE,157,0.0,2.0,100,0.00,,,0.00,Weather View 32 v70,2013-06-12 06:20:00,
2013-06-12 02:25:00,73.0,73.0,29.92,SSE,157,0.0,0.0,100,0.00,,,0.00,Weather View 32 v70,2013-06-12 06:25:00,
2013-06-12 02:35:00,73.0,73.0,29.92,SSE,157,0.0,0.0,100,0.00,,,0.00,Weather View 32 v70,2013-06-12 06:35:00,
2013-06-12 02:40:00,73.0,73.0,29.92,SSE,157,0.0,0.0,100,0.00,,,0.00,Weather View 32 v70,2013-06-12 06:40:00,
2013-06-12 02:45:00,73.0,73.0,29.92,SSE,157,0.0,0.0,100,0.00,,,0.00,Weather View 32 v70,2013-06-12 06:45:00,
2013-06-12 02:50:00,73.0,73.0,29.92,SSE,157,0.0,2.0,100,0.00,,,0.00,Weather View 32 v70,2013-06-12 06:50:00,
2013-06-12 02:59:00,73.0,73.0,29.92,SSE,157,0.0,2.0,100,0.00,,,0.00,Weather View 32 v70,2013-06-12 06:59:00,
2013-06-12 03:05:00,72.0,72.0,29.92,SSE,157,0.0,2.0,100,0.00,,,0.00,Weather View 32 v70,2013-06-12 07:05:00,
2013-06-12 03:10:00,72.0,72.0,29.91,SSE,157,0.0,2.0,100,0.00,,,0.00,Weather View 32 v70,2013-06-12 07:10:00,
2013-06-12 03:15:00,73.0,72.7,29.91,SSE,157,0.0,2.0,99,0.00,,,0.00,Weather View 32 v70,2013-06-12 07:15:00,
2013-06-12 03:25:00,73.0,72.7,29.91,SSE,157,0.0,2.0,99,0.00,,,0.00,Weather View 32 v70,2013-06-12 07:25:00,
2013-06-12 03:30:00,73.0,72.4,29.91,SSE,157,0.0,2.0,98,0.00,,,0.00,Weather View 32 v70,2013-06-12 07:30:00,
2013-06-12 03:40:00,73.0,72.1,29.91,SSE,157,0.0,2.0,97,0.00,,,0.00,Weather View 32 v70,2013-06-12 07:40:00,
2013-06-12 03:45:00,73.0,72.1,29.91,SSE,157,0.0,2.0,97,0.00,,,0.00,Weather View 32 v70,2013-06-12 07:45:00,
2013-06-12 03:50:00,74.0,73.1,29.91,SSE,157,0.0,2.0,97,0.00,,,0.00,Weather View 32 v70,2013-06-12 07:50:00,
2013-06-12 03:55:00,74.0,73.1,29.91,SSE,157,0.0,2.0,97,0.00,,,0.00,Weather View 32 v70,2013-06-12 07:55:00,
2013-06-12 04:00:00,74.0,73.4,29.91,SSE,157,0.0,2.0,98,0.00,,,0.00,Weather View 32 v70,2013-06-12 08:00:00,
2013-06-12 04:10:00,73.0,72.4,29.91,SSE,157,0.0,1.0,98,0.00,,,0.00,Weather View 32 v70,2013-06-12 08:10:00,
2013-06-12 04:15:00,74.0,73.1,29.91,SSE,157,0.0,1.0,97,0.00,,,0.00,Weather View 32 v70,2013-06-12 08:15:00,
2013-06-12 04:20:00,74.0,73.1,29.91,SSE,157,0.0,1.0,97,0.00,,,0.00,Weather View 32 v70,2013-06-12 08:20:00,
2013-06-12 04:25:00,73.0,72.1,29.91,SSE,157,0.0,1.0,97,0.00,,,0.00,Weather View 32 v70,2013-06-12 08:25:00,
2013-06-12 04:30:00,73.0,72.1,29.92,SSE,157,0.0,1.0,97,0.00,,,0.00,Weather View 32 v70,2013-06-12 08:30:00,
2013-06-12 04:40:00,73.0,72.1,29.92,SSE,157,0.0,1.0,97,0.00,,,0.00,Weather View 32 v70,2013-06-12 08:40:00,
2013-06-12 04:45:00,73.0,72.1,29.92,SSE,157,0.0,1.0,97,0.00,,,0.00,Weather View 32 v70,2013-06-12 08:45:00,
2013-06-12 04:50:00,73.0,72.1,29.92,SSE,157,0.0,1.0,97,0.00,,,0.00,Weather View 32 v70,2013-06-12 08:50:00,
2013-06-12 04:55:00,73.0,71.8,29.92,SSE,157,0.0,1.0,96,0.00,,,0.00,Weather View 32 v70,2013-06-12 08:55:00,
2013-06-12 05:00:00,74.0,72.8,29.92,SW,225,0.0,1.0,96,0.00,,,0.00,Weather View 32 v70,2013-06-12 09:00:00,
2013-06-12 05:10:00,74.0,72.8,29.92,SW,225,0.0,1.0,96,0.00,,,0.00,Weather View 32 v70,2013-06-12 09:10:00,
2013-06-12 05:15:00,74.0,72.8,29.93,SW,225,0.0,1.0,96,0.00,,,0.00,Weather View 32 v70,2013-06-12 09:15:00,
2013-06-12 05:25:00,73.0,71.8,29.93,SW,225,0.0,1.0,96,0.00,,,0.00,Weather View 32 v70,2013-06-12 09:25:00,
2013-06-12 05:30:00,73.0,71.8,29.93,SW,225,0.0,1.0,96,0.00,,,0.00,Weather View 32 v70,2013-06-12 09:30:00,
2013-06-12 05:40:00,73.0,71.8,29.93,SW,225,0.0,1.0,96,0.00,,,0.00,Weather View 32 v70,2013-06-12 09:40:00,
2013-06-12 05:45:00,73.0,71.8,29.93,SW,225,0.0,2.0,96,0.00,,,0.00,Weather View 32 v70,2013-06-12 09:45:00,
2013-06-12 05:50:00,73.0,71.8,29.93,SW,225,0.0,2.0,96,0.00,,,0.00,Weather View 32 v70,2013-06-12 09:50:00,
2013-06-12 05:55:00,73.0,71.8,29.93,SW,225,0.0,2.0,96,0.00,,,0.00,Weather View 32 v70,2013-06-12 09:55:00,
2013-06-12 06:00:00,73.0,71.8,29.93,SSE,157,0.0,3.0,96,0.00,,,0.00,Weather View 32 v70,2013-06-12 10:00:00,
2013-06-12 06:10:00,73.0,71.8,29.93,West,270,2.0,4.0,96,0.00,,,0.00,Weather View 32 v70,2013-06-12 10:10:00,
2013-06-12 06:15:00,74.0,72.5,29.93,West,270,0.0,4.0,95,0.00,,,0.00,Weather View 32 v70,2013-06-12 10:15:00,
2013-06-12 06:20:00,74.0,72.2,29.94,West,270,2.0,4.0,94,0.00,,,0.00,Weather View 32 v70,2013-06-12 10:20:00,
2013-06-12 06:30:00,74.0,72.2,29.94,West,270,2.0,4.0,94,0.00,,,0.00,Weather View 32 v70,2013-06-12 10:30:00,
2013-06-12 06:35:00,74.0,72.2,29.95,West,270,1.0,4.0,94,0.00,,,0.00,Weather View 32 v70,2013-06-12 10:35:00,
2013-06-12 06:40:00,74.0,72.5,29.95,West,270,0.0,4.0,95,0.00,,,0.00,Weather View 32 v70,2013-06-12 10:40:00,
2013-06-12 06:45:00,74.0,72.5,29.95,West,270,0.0,4.0,95,0.00,,,0.00,Weather View 32 v70,2013-06-12 10:45:00,
2013-06-12 06:55:00,74.0,72.2,29.95,West,270,2.0,4.0,94,0.00,,,0.00,Weather View 32 v70,2013-06-12 10:55:00,
2013-06-12 07:00:00,74.0,72.2,29.95,West,270,2.0,4.0,94,0.00,,,0.00,Weather View 32 v70,2013-06-12 11:00:00,
2013-06-12 07:05:00,74.0,72.2,29.96,West,270,2.0,4.0,94,0.00,,,0.00,Weather View 32 v70,2013-06-12 11:05:00,
2013-06-12 07:10:00,74.0,72.2,29.96,West,270,1.0,4.0,94,0.00,,,0.00,Weather View 32 v70,2013-06-12 11:10:00,
2013-06-12 07:20:00,75.0,73.1,29.96,West,270,1.0,4.0,94,0.00,,,0.00,Weather View 32 v70,2013-06-12 11:20:00,
2013-06-12 07:25:00,75.0,73.1,29.96,West,270,1.0,3.0,94,0.00,,,0.00,Weather View 32 v70,2013-06-12 11:25:00,
2013-06-12 07:30:00,75.0,73.1,29.96,West,270,0.0,3.0,94,0.00,,,0.00,Weather View 32 v70,2013-06-12 11:30:00,
2013-06-12 07:35:00,76.0,73.8,29.97,West,270,1.0,3.0,93,0.00,,,0.00,Weather View 32 v70,2013-06-12 11:35:00,
2013-06-12 07:45:00,77.0,74.8,29.97,West,270,0.0,3.0,93,0.00,,,0.00,Weather View 32 v70,2013-06-12 11:45:00,
2013-06-12 07:50:00,78.0,76.8,29.97,West,270,0.0,3.0,96,0.00,,,0.00,Weather View 32 v70,2013-06-12 11:50:00,
2013-06-12 08:00:00,78.0,77.4,29.97,West,270,0.0,4.0,98,0.00,,,0.00,Weather View 32 v70,2013-06-12 12:00:00,
2013-06-12 08:05:00,78.0,77.7,29.97,West,270,0.0,4.0,99,0.00,,,0.00,Weather View 32 v70,2013-06-12 12:05:00,
2013-06-12 08:10:00,78.0,77.7,29.97,West,270,3.0,6.0,99,0.00,,,0.00,Weather View 32 v70,2013-06-12 12:10:00,
2013-06-12 08:15:00,78.0,77.7,29.98,West,270,0.0,6.0,99,0.00,,,0.00,Weather View 32 v70,2013-06-12 12:15:00,
2013-06-12 08:20:00,78.0,77.7,29.98,West,270,2.0,6.0,99,0.00,,,0.00,Weather View 32 v70,2013-06-12 12:20:00,
2013-06-12 08:30:00,78.0,77.7,29.97,West,270,0.0,6.0,99,0.00,,,0.00,Weather View 32 v70,2013-06-12 12:30:00,
2013-06-12 08:35:00,78.0,77.4,29.98,WSW,247,2.0,6.0,98,0.00,,,0.00,Weather View 32 v70,2013-06-12 12:35:00,
2013-06-12 08:40:00,78.0,77.4,29.98,WSW,247,2.0,6.0,98,0.00,,,0.00,Weather View 32 v70,2013-06-12 12:40:00,
2013-06-12 08:45:00,78.0,77.4,29.98,WNW,292,1.0,6.0,98,0.00,,,0.00,Weather View 32 v70,2013-06-12 12:45:00,
2013-06-12 08:50:00,78.0,77.4,29.98,West,270,3.0,7.0,98,0.00,,,0.00,Weather View 32 v70,2013-06-12 12:50:00,
2013-06-12 09:00:00,79.0,78.4,29.98,West,270,0.0,7.0,98,0.00,,,0.00,Weather View 32 v70,2013-06-12 13:00:00,
2013-06-12 09:05:00,79.0,78.4,29.98,WNW,292,1.0,7.0,98,0.00,,,0.00,Weather View 32 v70,2013-06-12 13:05:00,
2013-06-12 09:10:00,79.0,78.4,29.99,West,270,5.0,7.0,98,0.00,,,0.00,Weather View 32 v70,2013-06-12 13:10:00,
2013-06-12 09:20:00,79.0,78.1,29.99,WNW,292,0.0,7.0,97,0.00,,,0.00,Weather View 32 v70,2013-06-12 13:20:00,
2013-06-12 09:25:00,79.0,78.1,29.99,West,270,2.0,7.0,97,0.00,,,0.00,Weather View 32 v70,2013-06-12 13:25:00,
2013-06-12 09:30:00,79.0,78.1,29.99,WNW,292,1.0,7.0,97,0.00,,,0.00,Weather View 32 v70,2013-06-12 13:30:00,
2013-06-12 09:35:00,79.0,77.8,29.99,West,270,3.0,7.0,96,0.00,,,0.00,Weather View 32 v70,2013-06-12 13:35:00,
2013-06-12 09:40:00,79.0,77.8,29.99,West,270,0.0,7.0,96,0.00,,,0.00,Weather View 32 v70,2013-06-12 13:40:00,
2013-06-12 09:50:00,79.0,77.8,29.99,West,270,1.0,6.0,96,0.00,,,0.00,Weather View 32 v70,2013-06-12 13:50:00,
2013-06-12 09:55:00,79.0,78.1,29.99,West,270,1.0,6.0,97,0.00,,,0.00,Weather View 32 v70,2013-06-12 13:55:00,
2013-06-12 10:00:00,79.0,77.8,29.99,West,270,1.0,6.0,96,0.00,,,0.00,Weather View 32 v70,2013-06-12 14:00:00,
2013-06-12 10:10:00,79.0,77.8,29.99,WNW,292,2.0,6.0,96,0.00,,,0.00,Weather View 32 v70,2013-06-12 14:10:00,
2013-06-12 10:15:00,79.0,78.1,29.99,WNW,292,2.0,6.0,97,0.00,,,0.00,Weather View 32 v70,2013-06-12 14:15:00,
2013-06-12 10:20:00,79.0,77.8,29.99,West,270,0.0,6.0,96,0.00,,,0.00,Weather View 32 v70,2013-06-12 14:20:00,
2013-06-12 10:30:00,79.0,78.1,29.99,West,270,1.0,6.0,97,0.00,,,0.00,Weather View 32 v70,2013-06-12 14:30:00,
2013-06-12 10:35:00,79.0,78.1,29.99,West,270,0.0,6.0,97,0.00,,,0.00,Weather View 32 v70,2013-06-12 14:35:00,
2013-06-12 10:40:00,80.0,79.1,30.00,WNW,292,3.0,6.0,97,0.00,,,0.00,Weather View 32 v70,2013-06-12 14:40:00,
2013-06-12 10:45:00,80.0,79.1,30.00,West,270,1.0,6.0,97,0.00,,,0.00,Weather View 32 v70,2013-06-12 14:45:00,
2013-06-12 10:50:00,80.0,79.1,30.00,WNW,292,1.0,6.0,97,0.00,,,0.00,Weather View 32 v70,2013-06-12 14:50:00,
2013-06-12 11:00:00,80.0,79.1,30.00,West,270,2.0,6.0,97,0.00,,,0.00,Weather View 32 v70,2013-06-12 15:00:00,
2013-06-12 11:05:00,81.0,80.1,30.00,West,270,6.0,6.0,97,0.00,,,0.00,Weather View 32 v70,2013-06-12 15:05:00,
2013-06-12 11:10:00,81.0,79.7,30.00,WNW,292,2.0,7.0,96,0.00,,,0.00,Weather View 32 v70,2013-06-12 15:10:00,
2013-06-12 11:15:00,82.0,80.1,30.00,West,270,2.0,7.0,94,0.00,,,0.00,Weather View 32 v70,2013-06-12 15:15:00,
2013-06-12 11:20:00,83.0,80.8,30.01,WNW,292,2.0,7.0,93,0.00,,,0.00,Weather View 32 v70,2013-06-12 15:20:00,
2013-06-12 11:30:00,84.0,79.7,30.01,WSW,247,2.0,8.0,87,0.00,,,0.00,Weather View 32 v70,2013-06-12 15:30:00,
2013-06-12 11:35:00,85.0,80.3,30.01,WNW,292,2.0,8.0,86,0.00,,,0.00,Weather View 32 v70,2013-06-12 15:35:00,
2013-06-12 11:40:00,85.0,79.6,30.01,WNW,292,1.0,8.0,84,0.00,,,0.00,Weather View 32 v70,2013-06-12 15:40:00,
2013-06-12 11:45:00,85.0,78.9,30.01,WNW,292,1.0,8.0,82,0.00,,,0.00,Weather View 32 v70,2013-06-12 15:45:00,
2013-06-12 11:55:00,87.0,78.9,30.02,West,270,3.0,8.0,77,0.00,,,0.00,Weather View 32 v70,2013-06-12 15:55:00,
2013-06-12 12:00:00,87.0,78.1,30.02,South,180,2.0,8.0,75,0.00,,,0.00,Weather View 32 v70,2013-06-12 16:00:00,
2013-06-12 12:05:00,88.0,78.2,30.02,SW,225,3.0,8.0,73,0.00,,,0.00,Weather View 32 v70,2013-06-12 16:05:00,
2013-06-12 12:10:00,89.0,77.5,30.02,West,270,1.0,8.0,69,0.00,,,0.00,Weather View 32 v70,2013-06-12 16:10:00,
2013-06-12 12:20:00,90.0,78.0,30.01,West,270,6.0,8.0,68,0.00,,,0.00,Weather View 32 v70,2013-06-12 16:20:00,
2013-06-12 12:30:00,89.0,76.6,30.01,SW,225,0.0,7.0,67,0.00,,,0.00,Weather View 32 v70,2013-06-12 16:30:00,
2013-06-12 12:35:00,90.0,76.1,30.01,NW,315,6.0,9.0,64,0.00,,,0.00,Weather View 32 v70,2013-06-12 16:35:00,
2013-06-12 12:40:00,90.0,77.5,30.01,NW,315,4.0,9.0,67,0.00,,,0.00,Weather View 32 v70,2013-06-12 16:40:00,
2013-06-12 12:50:00,91.0,78.5,30.00,West,270,3.0,9.0,67,0.00,,,0.00,Weather View 32 v70,2013-06-12 16:50:00,
2013-06-12 12:55:00,91.0,76.6,30.01,SW,225,2.0,9.0,63,0.00,,,0.00,Weather View 32 v70,2013-06-12 16:55:00,
2013-06-12 13:00:00,91.0,76.6,30.00,West,270,6.0,9.0,63,0.00,,,0.00,Weather View 32 v70,2013-06-12 17:00:00,
2013-06-12 13:10:00,91.0,76.6,30.00,WSW,247,1.0,10.0,63,0.00,,,0.00,Weather View 32 v70,2013-06-12 17:10:00,
2013-06-12 13:20:00,91.0,76.6,30.00,West,270,0.0,10.0,63,0.00,,,0.00,Weather View 32 v70,2013-06-12 17:20:00,
2013-06-12 13:25:00,91.0,76.6,29.99,WSW,247,2.0,10.0,63,0.00,,,0.00,Weather View 32 v70,2013-06-12 17:25:00,
2013-06-12 13:30:00,92.0,76.6,29.99,West,270,3.0,10.0,61,0.00,,,0.00,Weather View 32 v70,2013-06-12 17:30:00,
2013-06-12 13:35:00,92.0,77.5,29.99,West,270,4.0,10.0,63,0.00,,,0.00,Weather View 32 v70,2013-06-12 17:35:00,
2013-06-12 13:45:00,91.0,75.1,29.98,SW,225,3.0,10.0,60,0.00,,,0.00,Weather View 32 v70,2013-06-12 17:45:00,
2013-06-12 13:50:00,91.0,75.1,29.98,SSW,202,4.0,10.0,60,0.00,,,0.00,Weather View 32 v70,2013-06-12 17:50:00,
2013-06-12 13:55:00,92.0,76.6,29.97,SE,135,1.0,10.0,61,0.00,,,0.00,Weather View 32 v70,2013-06-12 17:55:00,
2013-06-12 14:00:00,92.0,75.5,29.97,SE,135,5.0,10.0,59,0.00,,,0.00,Weather View 32 v70,2013-06-12 18:00:00,
2013-06-12 14:05:00,92.0,76.6,29.97,South,180,3.0,10.0,61,0.00,,,0.00,Weather View 32 v70,2013-06-12 18:05:00,
2013-06-12 14:15:00,93.0,76.5,29.96,SSW,202,3.0,10.0,59,0.00,,,0.00,Weather View 32 v70,2013-06-12 18:15:00,
2013-06-12 14:25:00,93.0,74.4,29.96,WSW,247,2.0,10.0,55,0.00,,,0.00,Weather View 32 v70,2013-06-12 18:25:00,
2013-06-12 14:30:00,93.0,74.4,29.95,WSW,247,6.0,10.0,55,0.00,,,0.00,Weather View 32 v70,2013-06-12 18:30:00,
2013-06-12 14:35:00,93.0,74.4,29.96,SW,225,2.0,10.0,55,0.00,,,0.00,Weather View 32 v70,2013-06-12 18:35:00,
2013-06-12 14:40:00,93.0,74.9,29.96,West,270,3.0,10.0,56,0.00,,,0.00,Weather View 32 v70,2013-06-12 18:40:00,
2013-06-12 14:45:00,93.0,74.9,29.96,SW,225,1.0,10.0,56,0.00,,,0.00,Weather View 32 v70,2013-06-12 18:45:00,
2013-06-12 14:50:00,93.0,73.8,29.95,West,270,4.0,12.0,54,0.00,,,0.00,Weather View 32 v70,2013-06-12 18:50:00,
2013-06-12 15:00:00,93.0,73.3,29.95,West,270,3.0,12.0,53,0.00,,,0.00,Weather View 32 v70,2013-06-12 19:00:00,
2013-06-12 15:06:00,93.0,74.9,29.95,SW,225,2.0,12.0,56,0.00,,,0.00,Weather View 32 v70,2013-06-12 19:06:00,
2013-06-12 15:15:00,93.0,72.7,29.95,WSW,247,5.0,12.0,52,0.00,,,0.00,Weather View 32 v70,2013-06-12 19:15:00,
2013-06-12 15:20:00,93.0,73.3,29.95,SW,225,2.0,12.0,53,0.00,,,0.00,Weather View 32 v70,2013-06-12 19:20:00,
2013-06-12 15:25:00,93.0,73.3,29.95,West,270,6.0,12.0,53,0.00,,,0.00,Weather View 32 v70,2013-06-12 19:25:00,
2013-06-12 15:30:00,93.0,73.8,29.94,West,270,4.0,12.0,54,0.00,,,0.00,Weather View 32 v70,2013-06-12 19:30:00,
2013-06-12 15:40:00,93.0,73.8,29.93,WSW,247,2.0,12.0,54,0.00,,,0.00,Weather View 32 v70,2013-06-12 19:40:00,
2013-06-12 15:45:00,93.0,74.4,29.93,SSE,157,4.0,12.0,55,0.00,,,0.00,Weather View 32 v70,2013-06-12 19:45:00,
2013-06-12 15:50:00,93.0,74.4,29.92,SW,225,2.0,12.0,55,0.00,,,0.00,Weather View 32 v70,2013-06-12 19:50:00,
2013-06-12 15:55:00,93.0,74.9,29.92,WSW,247,2.0,12.0,56,0.00,,,0.00,Weather View 32 v70,2013-06-12 19:55:00,
2013-06-12 16:05:00,93.0,73.8,29.91,SW,225,1.0,13.0,54,0.00,,,0.00,Weather View 32 v70,2013-06-12 20:05:00,
2013-06-12 16:10:00,93.0,73.8,29.90,SSW,202,6.0,13.0,54,0.00,,,0.00,Weather View 32 v70,2013-06-12 20:10:00,
2013-06-12 16:15:00,92.0,74.0,29.89,West,270,8.0,13.0,56,0.00,,,0.00,Weather View 32 v70,2013-06-12 20:15:00,
2013-06-12 16:25:00,91.0,72.0,29.89,WSW,247,5.0,13.0,54,0.00,,,0.00,Weather View 32 v70,2013-06-12 20:25:00,
2013-06-12 16:30:00,91.0,72.5,29.89,SW,225,3.0,13.0,55,0.00,,,0.00,Weather View 32 v70,2013-06-12 20:30:00,
2013-06-12 16:35:00,90.0,72.1,29.89,SE,135,7.0,13.0,56,0.00,,,0.00,Weather View 32 v70,2013-06-12 20:35:00,
2013-06-12 16:40:00,90.0,73.2,29.88,SW,225,2.0,13.0,58,0.00,,,0.00,Weather View 32 v70,2013-06-12 20:40:00,
2013-06-12 16:50:00,90.0,73.2,29.87,SSW,202,4.0,14.0,58,0.00,,,0.00,Weather View 32 v70,2013-06-12 20:50:00,
2013-06-12 16:55:00,90.0,74.7,29.87,SW,225,7.0,14.0,61,0.00,,,0.00,Weather View 32 v70,2013-06-12 20:55:00,
2013-06-12 17:00:00,90.0,74.7,29.87,SW,225,6.0,14.0,61,0.00,,,0.00,Weather View 32 v70,2013-06-12 21:00:00,
2013-06-12 17:05:00,90.0,74.7,29.87,WSW,247,2.0,14.0,61,0.00,,,0.00,Weather View 32 v70,2013-06-12 21:05:00,
2013-06-12 17:15:00,90.0,72.6,29.86,WSW,247,6.0,14.0,57,0.00,,,0.00,Weather View 32 v70,2013-06-12 21:15:00,
2013-06-12 17:20:00,90.0,72.1,29.86,SW,225,4.0,14.0,56,0.00,,,0.00,Weather View 32 v70,2013-06-12 21:20:00,
2013-06-12 17:25:00,90.0,72.1,29.86,SSW,202,4.0,14.0,56,0.00,,,0.00,Weather View 32 v70,2013-06-12 21:25:00,
2013-06-12 17:35:00,90.0,72.6,29.86,South,180,1.0,14.0,57,0.00,,,0.00,Weather View 32 v70,2013-06-12 21:35:00,
2013-06-12 17:40:00,90.0,73.2,29.87,West,270,5.0,14.0,58,0.00,,,0.00,Weather View 32 v70,2013-06-12 21:40:00,
2013-06-12 17:45:00,90.0,73.7,29.87,SW,225,3.0,14.0,59,0.00,,,0.00,Weather View 32 v70,2013-06-12 21:45:00,
2013-06-12 17:50:00,91.0,74.6,29.87,West,270,3.0,14.0,59,0.00,,,0.00,Weather View 32 v70,2013-06-12 21:50:00,
2013-06-12 17:55:00,91.0,74.1,29.87,SSW,202,6.0,14.0,58,0.00,,,0.00,Weather View 32 v70,2013-06-12 21:55:00,
2013-06-12 18:00:00,90.0,73.2,29.87,WSW,247,6.0,14.0,58,0.00,,,0.00,Weather View 32 v70,2013-06-12 22:00:00,
2013-06-12 18:05:00,90.0,73.7,29.87,South,180,6.0,14.0,59,0.00,,,0.00,Weather View 32 v70,2013-06-12 22:05:00,
2013-06-12 18:10:00,91.0,74.1,29.87,West,270,1.0,14.0,58,0.00,,,0.00,Weather View 32 v70,2013-06-12 22:10:00,
2013-06-12 18:20:00,90.0,73.2,29.87,WSW,247,1.0,14.0,58,0.00,,,0.00,Weather View 32 v70,2013-06-12 22:20:00,
2013-06-12 18:25:00,90.0,72.6,29.87,West,270,1.0,14.0,57,0.00,,,0.00,Weather View 32 v70,2013-06-12 22:25:00,
2013-06-12 18:35:00,91.0,74.6,29.87,West,270,3.0,13.0,59,0.00,,,0.00,Weather View 32 v70,2013-06-12 22:35:00,
2013-06-12 18:40:00,91.0,73.1,29.87,West,270,2.0,13.0,56,0.00,,,0.00,Weather View 32 v70,2013-06-12 22:40:00,
2013-06-12 18:50:00,91.0,73.6,29.86,South,180,5.0,12.0,57,0.00,,,0.00,Weather View 32 v70,2013-06-12 22:50:00,
2013-06-12 19:00:00,91.0,74.1,29.86,West,270,1.0,12.0,58,0.00,,,0.00,Weather View 32 v70,2013-06-12 23:00:00,
2013-06-12 19:05:00,92.0,74.5,29.86,West,270,4.0,10.0,57,0.00,,,0.00,Weather View 32 v70,2013-06-12 23:05:00,
2013-06-12 19:10:00,92.0,74.0,29.86,WSW,247,9.0,10.0,56,0.00,,,0.00,Weather View 32 v70,2013-06-12 23:10:00,
2013-06-12 19:20:00,92.0,74.0,29.85,South,180,5.0,10.0,56,0.00,,,0.00,Weather View 32 v70,2013-06-12 23:20:00,
2013-06-12 19:30:00,91.0,74.6,29.85,South,180,2.0,11.0,59,0.00,,,0.00,Weather View 32 v70,2013-06-12 23:30:00,
2013-06-12 19:35:00,91.0,74.6,29.85,SW,225,2.0,11.0,59,0.00,,,0.00,Weather View 32 v70,2013-06-12 23:35:00,
2013-06-12 19:45:00,90.0,74.7,29.85,SE,135,6.0,11.0,61,0.00,,,0.00,Weather View 32 v70,2013-06-12 23:45:00,
2013-06-12 19:50:00,90.0,74.7,29.85,SE,135,4.0,11.0,61,0.00,,,0.00,Weather View 32 v70,2013-06-12 23:50:00,
2013-06-12 19:55:00,89.0,74.7,29.85,SW,225,0.0,11.0,63,0.00,,,0.00,Weather View 32 v70,2013-06-12 23:55:00,
2013-06-12 20:05:00,88.0,74.7,29.84,WSW,247,5.0,11.0,65,0.00,,,0.00,Weather View 32 v70,2013-06-13 00:05:00,
2013-06-12 20:15:00,88.0,75.6,29.84,SW,225,2.0,11.0,67,0.00,,,0.00,Weather View 32 v70,2013-06-13 00:15:00,
2013-06-12 20:25:00,87.0,75.1,29.83,SW,225,5.0,16.0,68,0.00,,,0.00,Weather View 32 v70,2013-06-13 00:25:00,
2013-06-12 20:30:00,87.0,75.5,29.83,West,270,3.0,16.0,69,0.00,,,0.00,Weather View 32 v70,2013-06-13 00:30:00,
2013-06-12 20:40:00,87.0,75.1,29.83,SSW,202,0.0,16.0,68,0.00,,,0.00,Weather View 32 v70,2013-06-13 00:40:00,
2013-06-12 20:45:00,87.0,75.1,29.83,South,180,1.0,16.0,68,0.00,,,0.00,Weather View 32 v70,2013-06-13 00:45:00,
2013-06-12 20:50:00,86.0,74.6,29.83,South,180,0.0,16.0,69,0.00,,,0.00,Weather View 32 v70,2013-06-13 00:50:00,
2013-06-12 21:00:00,86.0,75.0,29.83,SW,225,2.0,16.0,70,0.00,,,0.00,Weather View 32 v70,2013-06-13 01:00:00,
2013-06-12 21:05:00,86.0,75.5,29.83,SW,225,1.0,16.0,71,0.00,,,0.00,Weather View 32 v70,2013-06-13 01:05:00,
2013-06-12 21:15:00,85.0,74.9,29.82,SW,225,3.0,16.0,72,0.00,,,0.00,Weather View 32 v70,2013-06-13 01:15:00,
2013-06-12 21:20:00,85.0,75.3,29.82,South,180,3.0,16.0,73,0.00,,,0.00,Weather View 32 v70,2013-06-13 01:20:00,
2013-06-12 21:30:00,85.0,75.7,29.81,SSW,202,1.0,10.0,74,0.00,,,0.00,Weather View 32 v70,2013-06-13 01:30:00,
2013-06-12 21:40:00,84.0,75.2,29.81,West,270,3.0,9.0,75,0.00,,,0.00,Weather View 32 v70,2013-06-13 01:40:00,
2013-06-12 21:45:00,84.0,74.8,29.81,WSW,247,4.0,9.0,74,0.00,,,0.00,Weather View 32 v70,2013-06-13 01:45:00,
2013-06-12 21:55:00,84.0,74.4,29.80,WSW,247,2.0,9.0,73,0.00,,,0.00,Weather View 32 v70,2013-06-13 01:55:00,
2013-06-12 22:00:00,84.0,74.8,29.79,WSW,247,3.0,9.0,74,0.00,,,0.00,Weather View 32 v70,2013-06-13 02:00:00,
2013-06-12 22:05:00,84.0,74.4,29.79,West,270,4.0,9.0,73,0.00,,,0.00,Weather View 32 v70,2013-06-13 02:05:00,
2013-06-12 22:15:00,83.0,73.0,29.79,West,270,4.0,9.0,72,0.00,,,0.00,Weather View 32 v70,2013-06-13 02:15:00,
2013-06-12 22:20:00,83.0,73.0,29.80,South,180,0.0,9.0,72,0.00,,,0.00,Weather View 32 v70,2013-06-13 02:20:00,
2013-06-12 22:30:00,83.0,73.0,29.80,SW,225,1.0,9.0,72,0.00,,,0.00,Weather View 32 v70,2013-06-13 02:30:00,
2013-06-12 22:35:00,83.0,73.0,29.80,WSW,247,1.0,9.0,72,0.00,,,0.00,Weather View 32 v70,2013-06-13 02:35:00,
2013-06-12 22:45:00,83.0,73.0,29.80,West,270,1.0,9.0,72,0.00,,,0.00,Weather View 32 v70,2013-06-13 02:45:00,
2013-06-12 22:50:00,83.0,73.0,29.80,SW,225,1.0,9.0,72,0.00,,,0.00,Weather View 32 v70,2013-06-13 02:50:00,
2013-06-12 22:55:00,83.0,73.0,29.80,West,270,1.0,9.0,72,0.00,,,0.00,Weather View 32 v70,2013-06-13 02:55:00,
2013-06-12 23:05:00,83.0,72.6,29.81,South,180,1.0,9.0,71,0.00,,,0.00,Weather View 32 v70,2013-06-13 03:05:00,
2013-06-12 23:10:00,83.0,72.6,29.81,SW,225,6.0,9.0,71,0.00,,,0.00,Weather View 32 v70,2013-06-13 03:10:00,
2013-06-12 23:20:00,83.0,71.7,29.81,SW,225,6.0,10.0,69,0.00,,,0.00,Weather View 32 v70,2013-06-13 03:20:00,
2013-06-12 23:25:00,83.0,71.7,29.81,West,270,6.0,10.0,69,0.00,,,0.00,Weather View 32 v70,2013-06-13 03:25:00,
2013-06-12 23:35:00,83.0,72.2,29.81,NW,315,0.0,10.0,70,0.00,,,0.00,Weather View 32 v70,2013-06-13 03:35:00,
2013-06-12 23:45:00,83.0,72.6,29.81,SW,225,2.0,10.0,71,0.00,,,0.00,Weather View 32 v70,2013-06-13 03:45:00,
2013-06-12 23:55:00,83.0,72.6,29.81,West,270,4.0,10.0,71,0.00,,,0.00,Weather View 32 v70,2013-06-13 03:55:00,